Freeport, IL

1:58 PM CDT on August 21, 2017 (GMT -0500)
Albertus

Weather History for KFEP - March, 2012

Change the Weather History Date:

Thursday, March 29, 2012

  Actual Average Record
Temperature  
Mean Temperature 44 °F -  
Max Temperature 57 °F 53 °F 77 °F (1986)
Min Temperature 32 °F 33 °F 17 °F (1982)
Degree Days  
Heating Degree Days 20    
Moisture  
Dew Point 34 °F    
Average Humidity 69    
Maximum Humidity 90    
Minimum Humidity 48    
Precipitation  
Precipitation 0.00 in - - ()
Sea Level Pressure  
Sea Level Pressure 30.08 in    
Wind  
Wind Speed 7 mph (ENE)    
Max Wind Speed 18 mph    
Max Gust Speed 21 mph    
Visibility 10 miles    
Events Thunderstorm    
Averages and records for this station are not official NWS values.
T = Trace of Precipitation, MM = Missing Value Source: NWS Daily Summary

Daily Weather History Graph

Daily Weather History Graph

Search for Another Location

Airport or City:

Trip Planner

Search our weather history database for the weather conditions in past years. The results will help you decide how hot, cold, wet, or windy it might be!

Date:

Astronomy

Mar. 29, 2012 Rise Set
Actual Time 6:45 AM CDT 7:21 PM CDT
Civil Twilight 6:16 AM CDT 7:49 PM CDT
Nautical Twilight 5:43 AM CDT 8:22 PM CDT
Astronomical Twilight 5:09 AM CDT 8:57 PM CDT
Moon 10:48 AM CDT (3/29) 1:18 AM CDT (3/29)
Length of Visible Light 13h 32m
Length of Day
12h 36m
Waxing Crescent, 39% of the Moon is Illuminated
Mar 29
Waxing Crescent
Mar 30
First Quarter
Apr 6
Full
Apr 13
Last Quarter
Apr 21
New

Hourly Weather History & Observations

Time (CDT) Temp. Windchill Dew Point Humidity Pressure Visibility Wind Dir Wind Speed Gust Speed Precip Events Conditions
12:15 AM 44.1 °F 42.5 °F 37.4 °F 77% 30.06 in 10.0 mi NNE 3.5 mph - N/A   Clear
12:35 AM 43.0 °F 40.3 °F 36.5 °F 78% 30.06 in 10.0 mi NNE 4.6 mph - N/A   Clear
12:55 AM 41.9 °F - 36.0 °F 79% 30.06 in 10.0 mi Calm Calm - N/A   Clear
1:15 AM 41.9 °F - 36.1 °F 80% 30.06 in 10.0 mi Calm Calm - N/A   Clear
1:35 AM 39.2 °F - 34.7 °F 84% 30.07 in 10.0 mi Calm Calm - N/A   Clear
1:55 AM 39.2 °F - 34.7 °F 84% 30.07 in 10.0 mi Calm Calm - N/A   Clear
2:15 AM 41.9 °F 40.0 °F 36.9 °F 82% 30.06 in 10.0 mi NE 3.5 mph - N/A   Clear
2:35 AM 37.4 °F - 32.0 °F 81% 30.06 in 10.0 mi Calm Calm - N/A   Clear
2:55 AM 37.9 °F 34.4 °F 34.3 °F 87% 30.07 in 10.0 mi NE 4.6 mph - N/A   Clear
3:15 AM 36.7 °F 30.5 °F 32.9 °F 86% 30.06 in 10.0 mi NE 8.1 mph - N/A   Clear
3:35 AM 37.2 °F 30.6 °F 33.4 °F 86% 30.06 in 10.0 mi ENE 9.2 mph - N/A   Clear
3:55 AM 38.8 °F 32.6 °F 34.3 °F 84% 30.07 in 10.0 mi East 9.2 mph - N/A   Clear
4:15 AM 36.7 °F 30.5 °F 32.5 °F 85% 30.08 in 10.0 mi East 8.1 mph - N/A   Clear
4:35 AM 36.7 °F 32.9 °F 33.1 °F 87% 30.10 in 10.0 mi ENE 4.6 mph - N/A   Clear
4:55 AM 34.2 °F 29.0 °F 31.3 °F 89% 30.10 in 10.0 mi ENE 5.8 mph - N/A   Clear
5:15 AM 34.2 °F 28.2 °F 31.5 °F 90% 30.11 in 10.0 mi NE 6.9 mph - N/A   Clear
5:35 AM 34.2 °F 27.5 °F 31.1 °F 89% 30.11 in 10.0 mi NE 8.1 mph - N/A   Clear
5:55 AM 34.2 °F 29.0 °F 31.1 °F 89% 30.11 in 10.0 mi ENE 5.8 mph - N/A   Clear
6:15 AM 33.8 °F 27.0 °F 30.7 °F 89% 30.11 in 10.0 mi NE 8.1 mph - N/A   Clear
6:35 AM 32.9 °F 27.5 °F 30.0 °F 89% 30.12 in 10.0 mi NE 5.8 mph - N/A   Clear
6:55 AM 32.9 °F 26.7 °F 30.2 °F 90% 30.12 in 10.0 mi NE 6.9 mph - N/A   Clear
7:15 AM 33.4 °F 29.1 °F 30.9 °F 90% 30.14 in 10.0 mi ENE 4.6 mph - N/A   Clear
7:35 AM 34.7 °F 28.1 °F 31.5 °F 88% 30.14 in 10.0 mi ENE 8.1 mph - N/A   Clear
7:55 AM 36.7 °F 31.2 °F 32.9 °F 86% 30.15 in 10.0 mi ENE 6.9 mph - N/A   Clear
8:15 AM 36.7 °F 31.2 °F 32.5 °F 85% 30.15 in 10.0 mi ENE 6.9 mph - N/A   Clear
8:35 AM 39.2 °F 32.5 °F 33.8 °F 81% 30.16 in 10.0 mi ENE 10.4 mph - N/A   Clear
8:55 AM 39.7 °F 32.7 °F 33.1 °F 77% 30.17 in 10.0 mi ENE 11.5 mph - N/A   Clear
9:15 AM 41.9 °F 35.0 °F 33.6 °F 72% 30.16 in 10.0 mi ENE 12.7 mph - N/A   Clear
9:35 AM 41.9 °F 34.6 °F 32.7 °F 70% 30.17 in 10.0 mi ENE 13.8 mph 18.4 mph N/A   Clear
9:55 AM 43.0 °F 36.8 °F 32.2 °F 66% 30.16 in 10.0 mi East 11.5 mph - N/A   Clear
10:35 AM 44.6 °F 38.4 °F 33.3 °F 64% 30.15 in 10.0 mi ENE 12.7 mph - N/A   Clear
10:55 AM 46.4 °F 40.4 °F 33.8 °F 62% 30.15 in 10.0 mi ENE 13.8 mph - N/A   Clear
11:15 AM 46.8 °F - 33.4 °F 60% 30.13 in 10.0 mi ENE 13.8 mph - N/A   Clear
11:35 AM 49.5 °F - 35.8 °F 59% 30.13 in 10.0 mi ENE 10.4 mph 19.6 mph N/A   Clear
11:55 AM 49.6 °F - 35.8 °F 59% 30.12 in 10.0 mi ENE 11.5 mph 17.3 mph N/A   Clear
12:15 PM 51.8 °F - 37.0 °F 57% 30.11 in 10.0 mi ENE 12.7 mph 17.3 mph N/A   Clear
12:35 PM 52.0 °F - 36.9 °F 56% 30.11 in 10.0 mi East 10.4 mph - N/A   Clear
12:55 PM 52.0 °F - 35.8 °F 54% 30.10 in 10.0 mi ENE 4.6 mph 16.1 mph N/A   Clear
1:15 PM 52.9 °F - 35.8 °F 52% 30.09 in 10.0 mi ENE 12.7 mph - N/A   Clear
1:35 PM 53.6 °F - 36.3 °F 52% 30.07 in 10.0 mi ENE 11.5 mph 16.1 mph N/A   Clear
1:55 PM 53.6 °F - 35.6 °F 51% 30.07 in 10.0 mi ENE 11.5 mph 17.3 mph N/A   Clear
2:15 PM 55.2 °F - 36.9 °F 50% 30.05 in 10.0 mi East 13.8 mph - N/A   Clear
2:35 PM 56.5 °F - 37.4 °F 49% 30.05 in 10.0 mi East 11.5 mph 19.6 mph N/A   Clear
2:55 PM 56.8 °F - 37.2 °F 48% 30.05 in 10.0 mi East 10.4 mph 16.1 mph N/A   Clear
3:15 PM 57.2 °F - 37.6 °F 48% 30.05 in 10.0 mi East 12.7 mph 16.1 mph N/A   Clear
3:35 PM 57.0 °F - 37.4 °F 48% 30.04 in 10.0 mi East 11.5 mph 19.6 mph N/A   Clear
3:55 PM 57.2 °F - 37.6 °F 48% 30.04 in 10.0 mi East 9.2 mph 18.4 mph N/A   Clear
4:15 PM 57.2 °F - 37.8 °F 48% 30.04 in 10.0 mi East 13.8 mph 19.6 mph N/A   Clear
4:35 PM 54.5 °F - 35.4 °F 49% 30.04 in 10.0 mi ENE 13.8 mph 18.4 mph N/A   Clear
4:55 PM 55.9 °F - 36.9 °F 49% 30.03 in 10.0 mi East 10.4 mph - N/A   Clear
5:15 PM 54.5 °F - 36.1 °F 50% 30.02 in 10.0 mi East 16.1 mph 19.6 mph N/A   Clear
5:35 PM 54.5 °F - 36.3 °F 50% 30.02 in 10.0 mi East 16.1 mph 20.7 mph N/A   Clear
5:55 PM 52.0 °F - 35.2 °F 53% 30.02 in 10.0 mi ENE 15.0 mph - N/A   Clear
6:15 PM 52.0 °F - 36.0 °F 54% 30.01 in 10.0 mi East 16.1 mph - N/A   Clear
6:35 PM 52.0 °F - 36.7 °F 56% 30.01 in 10.0 mi East 13.8 mph 19.6 mph N/A   Clear
6:55 PM 46.6 °F - 33.6 °F 61% 30.01 in 10.0 mi ENE 16.1 mph - N/A   Clear
7:15 PM 44.6 °F 36.9 °F 33.3 °F 64% 30.01 in 10.0 mi ENE 18.4 mph - N/A   Clear
7:35 PM 44.2 °F 37.0 °F 32.9 °F 64% 30.02 in 10.0 mi East 16.1 mph - N/A   Clear
7:55 PM 43.7 °F 36.9 °F 32.9 °F 66% 30.02 in 10.0 mi East 13.8 mph 19.6 mph N/A   Scattered Clouds
8:15 PM 42.1 °F 34.5 °F 32.0 °F 67% 30.02 in 10.0 mi East 15.0 mph - N/A   Mostly Cloudy
8:35 PM 41.9 °F 36.3 °F 32.9 °F 70% 30.01 in 10.0 mi ENE 9.2 mph - N/A   Scattered Clouds
8:55 PM 39.4 °F 31.4 °F 32.0 °F 75% 30.01 in 10.0 mi ENE 13.8 mph - N/A   Clear
9:15 PM 39.2 °F 31.6 °F 32.0 °F 75% 30.01 in 10.0 mi ENE 12.7 mph - N/A Thunderstorm Clear
9:35 PM 39.2 °F 30.8 °F 32.0 °F 75% 29.99 in 10.0 mi ENE 15.0 mph 20.7 mph N/A   Clear
9:55 PM 38.1 °F 29.8 °F 31.3 °F 76% 30.01 in 10.0 mi ENE 13.8 mph - N/A   Clear
10:15 PM 37.4 °F 30.3 °F 31.1 °F 78% 30.00 in 10.0 mi ENE 10.4 mph - N/A   Clear
10:35 PM 37.9 °F 30.5 °F 31.8 °F 79% 29.99 in 10.0 mi ENE 11.5 mph - N/A   Scattered Clouds
10:55 PM 37.9 °F 33.5 °F 31.6 °F 78% 30.00 in 10.0 mi ENE 5.8 mph - N/A   Scattered Clouds
11:15 PM 38.1 °F 29.8 °F 32.2 °F 79% 29.98 in 10.0 mi ENE 13.8 mph - N/A Rain Light Rain
11:35 PM 36.7 °F 28.4 °F 32.2 °F 84% 29.96 in 10.0 mi ENE 12.7 mph - N/A   Light Drizzle
11:55 PM 36.7 °F 26.6 °F 32.2 °F 84% 29.93 in 10.0 mi East 18.4 mph 25.3 mph N/A   Mostly Cloudy